| time (UTC) | temp F | wind direction | speed MPH | gust MPH | rain 1hr in | rain 24hr in | rain mn in | humidity % | barometer mb |
| 20260502215151 | 72 | 68 | 3.0 | 6.0 | 0.00 | 0.00 | 0.00 | 13 | 1179.7 |
| 20260502214649 | 73 | 110 | 7.0 | 8.0 | 0.00 | 0.00 | 0.00 | 15 | 1179.9 |
| 20260502214146 | 73 | 126 | 2.0 | 10.0 | 0.00 | 0.00 | 0.00 | 14 | 1179.7 |
| 20260502213643 | 74 | 197 | 2.0 | 6.0 | 0.00 | 0.00 | 0.00 | 12 | 1179.6 |
| 20260502213140 | 77 | 199 | 5.0 | 7.0 | 0.00 | 0.00 | 0.00 | 12 | 1180.0 |
| 20260502212639 | 73 | 127 | 0.0 | 2.0 | 0.00 | 0.00 | 0.00 | 14 | 1180.1 |
| 20260502212137 | 73 | 72 | 4.0 | 7.0 | 0.00 | 0.00 | 0.00 | 14 | 1180.2 |
| 20260502211632 | 72 | 104 | 1.0 | 7.0 | 0.00 | 0.00 | 0.00 | 14 | 1180.3 |
| 20260502211130 | 72 | 170 | 4.0 | 8.0 | 0.00 | 0.00 | 0.00 | 15 | 1180.3 |
| 20260502210627 | 73 | 161 | 11.0 | 13.0 | 0.00 | 0.00 | 0.00 | 15 | 1180.0 |
| 20260502210124 | 72 | 159 | 5.0 | 7.0 | 0.00 | 0.00 | 0.00 | 17 | 1180.1 |
| 20260502205620 | 72 | 114 | 4.0 | 9.0 | 0.00 | 0.00 | 0.00 | 17 | 1180.4 |
| 20260502205112 | 73 | 139 | 9.0 | 10.0 | 0.00 | 0.00 | 0.00 | 16 | 1180.5 |
| 20260502204608 | 74 | 172 | 3.0 | 6.0 | 0.00 | 0.00 | 0.00 | 15 | 1180.8 |
| 20260502204106 | 73 | 171 | 2.0 | 6.0 | 0.00 | 0.00 | 0.00 | 16 | 1180.6 |
| 20260502203602 | 72 | 232 | 4.0 | 6.0 | 0.00 | 0.00 | 0.00 | 16 | 1180.8 |
| 20260502203055 | 72 | 204 | 7.0 | 13.0 | 0.00 | 0.00 | 0.00 | 16 | 1181.0 |
| 20260502202550 | 72 | 145 | 5.0 | 10.0 | 0.00 | 0.00 | 0.00 | 16 | 1180.6 |
| 20260502202048 | 72 | 186 | 12.0 | 13.0 | 0.00 | 0.00 | 0.00 | 16 | 1181.1 |
| 20260502201544 | 72 | 115 | 2.0 | 5.0 | 0.00 | 0.00 | 0.00 | 16 | 1180.8 |
| 20260502201041 | 71 | 112 | 8.0 | 10.0 | 0.00 | 0.00 | 0.00 | 17 | 1181.3 |
| 20260502200536 | 71 | 121 | 5.0 | 10.0 | 0.00 | 0.00 | 0.00 | 17 | 1181.0 |
| 20260502200035 | 72 | 115 | 8.0 | 13.0 | 0.00 | 0.00 | 0.00 | 17 | 1181.0 |
| 20260502195532 | 72 | 93 | 6.0 | 8.0 | 0.00 | 0.00 | 0.00 | 16 | 1181.2 |
| 20260502195028 | 72 | 87 | 5.0 | 9.0 | 0.00 | 0.00 | 0.00 | 15 | 1181.3 |
| 20260502194525 | 71 | 132 | 5.0 | 7.0 | 0.00 | 0.00 | 0.00 | 18 | 1181.3 |
| 20260502194021 | 71 | 122 | 6.0 | 9.0 | 0.00 | 0.00 | 0.00 | 16 | 1181.4 |
| 20260502193518 | 71 | 145 | 8.0 | 10.0 | 0.00 | 0.00 | 0.00 | 16 | 1181.2 |
| 20260502193015 | 71 | 130 | 4.0 | 8.0 | 0.00 | 0.00 | 0.00 | 16 | 1181.6 |
| 20260502192510 | 71 | 105 | 9.0 | 10.0 | 0.00 | 0.00 | 0.00 | 17 | 1181.2 |
| 20260502192008 | 71 | 195 | 4.0 | 6.0 | 0.00 | 0.00 | 0.00 | 18 | 1181.7 |
| 20260502191505 | 70 | 118 | 4.0 | 7.0 | 0.00 | 0.00 | 0.00 | 17 | 1181.7 |
| 20260502191003 | 70 | 197 | 7.0 | 11.0 | 0.00 | 0.00 | 0.00 | 17 | 1181.7 |
| 20260502190500 | 70 | 182 | 4.0 | 5.0 | 0.00 | 0.00 | 0.00 | 19 | 1181.9 |
| 20260502185956 | 69 | 92 | 4.0 | 6.0 | 0.00 | 0.00 | 0.00 | 18 | 1181.9 |
| 20260502185452 | 71 | 114 | 7.0 | 11.0 | 0.00 | 0.00 | 0.00 | 20 | 1182.0 |
| 20260502184949 | 70 | 101 | 1.0 | 3.0 | 0.00 | 0.00 | 0.00 | 19 | 1181.9 |
| 20260502184444 | 70 | 78 | 6.0 | 9.0 | 0.00 | 0.00 | 0.00 | 19 | 1182.2 |
| 20260502183941 | 69 | 130 | 1.0 | 7.0 | 0.00 | 0.00 | 0.00 | 21 | 1182.0 |
| 20260502183437 | 70 | 135 | 10.0 | 14.0 | 0.00 | 0.00 | 0.00 | 21 | 1182.1 |
| 20260502182932 | 70 | 132 | 4.0 | 6.0 | 0.00 | 0.00 | 0.00 | 20 | 1182.3 |
| 20260502182428 | 69 | 130 | 7.0 | 13.0 | 0.00 | 0.00 | 0.00 | 21 | 1182.5 |
| 20260502181924 | 70 | 161 | 9.0 | 11.0 | 0.00 | 0.00 | 0.00 | 20 | 1182.6 |
| 20260502181423 | 70 | 96 | 9.0 | 10.0 | 0.00 | 0.00 | 0.00 | 21 | 1182.2 |
| 20260502180921 | 69 | 102 | 3.0 | 3.0 | 0.00 | 0.00 | 0.00 | 20 | 1182.5 |
| 20260502180418 | 69 | 134 | 3.0 | 13.0 | 0.00 | 0.00 | 0.00 | 20 | 1182.7 |
| 20260502170336 | 67 | 73 | 11.0 | 15.0 | 0.00 | 0.00 | 0.00 | 24 | 1183.0 |
| 20260502164324 | 65 | 94 | 11.0 | 14.0 | 0.00 | 0.00 | 0.00 | 25 | 1183.0 |
| 20260502163820 | 65 | 59 | 9.0 | 14.0 | 0.00 | 0.00 | 0.00 | 27 | 1182.9 |
| 20260502163316 | 64 | 61 | 8.0 | 14.0 | 0.00 | 0.00 | 0.00 | 27 | 1182.9 |
| 20260502162814 | 64 | 45 | 7.0 | 13.0 | 0.00 | 0.00 | 0.00 | 28 | 1183.0 |
| 20260502162311 | 62 | 78 | 7.0 | 11.0 | 0.00 | 0.00 | 0.00 | 28 | 1183.2 |
| 20260502161808 | 63 | 76 | 12.0 | 14.0 | 0.00 | 0.00 | 0.00 | 28 | 1183.2 |
| 20260502161304 | 62 | 78 | 9.0 | 14.0 | 0.00 | 0.00 | 0.00 | 30 | 1183.2 |
| 20260502160802 | 62 | 84 | 11.0 | 11.0 | 0.00 | 0.00 | 0.00 | 31 | 1183.2 |
| 20260502160301 | 61 | 72 | 12.0 | 17.0 | 0.00 | 0.00 | 0.00 | 32 | 1183.1 |
| 20260502152229 | 58 | 71 | 9.0 | 16.0 | 0.00 | 0.00 | 0.00 | 32 | 1183.2 |
| 20260502151727 | 58 | 74 | 11.0 | 14.0 | 0.00 | 0.00 | 0.00 | 31 | 1183.4 |
| 20260502151224 | 57 | 64 | 8.0 | 14.0 | 0.00 | 0.00 | 0.00 | 33 | 1183.1 |
| 20260502150721 | 57 | 65 | 8.0 | 13.0 | 0.00 | 0.00 | 0.00 | 34 | 1183.2 |
| 20260502150218 | 56 | 62 | 9.0 | 14.0 | 0.00 | 0.00 | 0.00 | 35 | 1183.4 |
| 20260502130607 | 42 | 55 | 9.0 | 15.0 | 0.00 | 0.00 | 0.00 | 55 | 1183.0 |
| 20260502130104 | 44 | 65 | 7.0 | 9.0 | 0.00 | 0.00 | 0.00 | 53 | 1182.8 |
| 20260502123550 | 46 | 15 | 10.0 | 14.0 | 0.00 | 0.00 | 0.00 | 44 | 1182.6 |
| 20260502123046 | 46 | 5 | 9.0 | 13.0 | 0.00 | 0.00 | 0.00 | 45 | 1182.3 |
| 20260502122542 | 46 | 12 | 9.0 | 13.0 | 0.00 | 0.00 | 0.00 | 45 | 1182.5 |
| 20260502122040 | 46 | 21 | 8.0 | 13.0 | 0.00 | 0.00 | 0.00 | 45 | 1182.2 |
| 20260502121537 | 46 | 19 | 10.0 | 14.0 | 0.00 | 0.00 | 0.00 | 45 | 1182.7 |
| 20260502121035 | 46 | 17 | 10.0 | 13.0 | 0.00 | 0.00 | 0.00 | 45 | 1182.6 |
| 20260502120531 | 46 | 32 | 8.0 | 14.0 | 0.00 | 0.00 | 0.00 | 44 | 1182.8 |
| 20260502115526 | 47 | 17 | 9.0 | 14.0 | 0.00 | 0.00 | 0.00 | 43 | 1182.9 |
| 20260502115022 | 47 | 5 | 11.0 | 15.0 | 0.00 | 0.00 | 0.00 | 42 | 1182.8 |
| 20260502114519 | 47 | 8 | 10.0 | 14.0 | 0.00 | 0.00 | 0.00 | 43 | 1182.5 |
| 20260502114015 | 47 | 16 | 11.0 | 13.0 | 0.00 | 0.00 | 0.00 | 43 | 1182.6 |
| 20260502113512 | 47 | 13 | 10.0 | 14.0 | 0.00 | 0.00 | 0.00 | 42 | 1182.8 |
| 20260502113011 | 48 | 9 | 8.0 | 13.0 | 0.00 | 0.00 | 0.00 | 42 | 1182.7 |
| 20260502112508 | 48 | 21 | 7.0 | 11.0 | 0.00 | 0.00 | 0.00 | 43 | 1182.7 |
| 20260502112006 | 48 | 12 | 9.0 | 14.0 | 0.00 | 0.00 | 0.00 | 41 | 1182.7 |
| 20260502111503 | 48 | 20 | 7.0 | 11.0 | 0.00 | 0.00 | 0.00 | 41 | 1182.7 |
| 20260502111000 | 48 | 25 | 10.0 | 13.0 | 0.00 | 0.00 | 0.00 | 42 | 1182.5 |
| 20260502110457 | 47 | 13 | 9.0 | 13.0 | 0.00 | 0.00 | 0.00 | 42 | 1182.6 |
| 20260502105955 | 48 | 28 | 9.0 | 13.0 | 0.00 | 0.00 | 0.00 | 42 | 1182.6 |
| 20260502105452 | 47 | 357 | 9.0 | 14.0 | 0.00 | 0.00 | 0.00 | 42 | 1182.7 |
| 20260502104949 | 47 | 19 | 9.0 | 14.0 | 0.00 | 0.00 | 0.00 | 44 | 1182.7 |
| 20260502104446 | 47 | 14 | 10.0 | 13.0 | 0.00 | 0.00 | 0.00 | 44 | 1182.3 |
| 20260502103944 | 47 | 18 | 7.0 | 13.0 | 0.00 | 0.00 | 0.00 | 44 | 1182.8 |
| 20260502103441 | 47 | 16 | 9.0 | 13.0 | 0.00 | 0.00 | 0.00 | 43 | 1182.6 |
| 20260502102938 | 46 | 12 | 12.0 | 14.0 | 0.00 | 0.00 | 0.00 | 43 | 1182.9 |
| 20260502102435 | 46 | 2 | 7.0 | 9.0 | 0.00 | 0.00 | 0.00 | 45 | 1182.8 |
| 20260502101932 | 45 | 19 | 8.0 | 11.0 | 0.00 | 0.00 | 0.00 | 46 | 1182.8 |
| 20260502101430 | 45 | 17 | 10.0 | 11.0 | 0.00 | 0.00 | 0.00 | 46 | 1182.8 |
| 20260502100928 | 45 | 11 | 7.0 | 8.0 | 0.00 | 0.00 | 0.00 | 47 | 1182.9 |
| 20260502100427 | 45 | 8 | 6.0 | 9.0 | 0.00 | 0.00 | 0.00 | 46 | 1182.8 |
| 20260502091401 | 46 | 13 | 5.0 | 7.0 | 0.00 | 0.00 | 0.00 | 46 | 1183.0 |
| 20260502090859 | 46 | 11 | 6.0 | 9.0 | 0.00 | 0.00 | 0.00 | 45 | 1182.9 |
| 20260502090355 | 46 | 1 | 5.0 | 8.0 | 0.00 | 0.00 | 0.00 | 46 | 1182.8 |
| 20260502071245 | 42 | 359 | 6.0 | 8.0 | 0.00 | 0.00 | 0.00 | 50 | 1183.2 |
| 20260502070743 | 43 | 21 | 6.0 | 8.0 | 0.00 | 0.00 | 0.00 | 50 | 1183.2 |
| 20260502070240 | 44 | 19 | 7.0 | 9.0 | 0.00 | 0.00 | 0.00 | 47 | 1183.2 |
| 20260502065739 | 45 | 13 | 6.0 | 8.0 | 0.00 | 0.00 | 0.00 | 47 | 1183.1 |
| 20260502065237 | 45 | 26 | 6.0 | 6.0 | 0.00 | 0.00 | 0.00 | 48 | 1183.2 |
| 20260502064735 | 45 | 29 | 6.0 | 8.0 | 0.00 | 0.00 | 0.00 | 48 | 1183.1 |
| 20260502064232 | 45 | 25 | 9.0 | 10.0 | 0.00 | 0.00 | 0.00 | 46 | 1183.1 |
| 20260502063730 | 43 | 59 | 6.0 | 7.0 | 0.00 | 0.00 | 0.00 | 50 | 1183.2 |
| 20260502063228 | 43 | 22 | 3.0 | 7.0 | 0.00 | 0.00 | 0.00 | 49 | 1183.2 |
| 20260502062724 | 43 | 16 | 5.0 | 8.0 | 0.00 | 0.00 | 0.00 | 48 | 1183.0 |
| 20260502062222 | 43 | 14 | 5.0 | 7.0 | 0.00 | 0.00 | 0.00 | 48 | 1183.1 |
| 20260502061720 | 43 | 13 | 6.0 | 9.0 | 0.00 | 0.00 | 0.00 | 48 | 1182.8 |
| 20260502061218 | 43 | 21 | 6.0 | 8.0 | 0.00 | 0.00 | 0.00 | 48 | 1183.0 |
| 20260502060712 | 43 | 17 | 6.0 | 9.0 | 0.00 | 0.00 | 0.00 | 48 | 1182.9 |
| 20260502060208 | 43 | 354 | 6.0 | 9.0 | 0.00 | 0.00 | 0.00 | 48 | 1182.8 |
| 20260502055706 | 43 | 10 | 7.0 | 8.0 | 0.00 | 0.00 | 0.00 | 48 | 1183.0 |
| 20260502055204 | 42 | 0 | 5.0 | 7.0 | 0.00 | 0.00 | 0.00 | 49 | 1182.8 |
| 20260502054658 | 41 | 21 | 4.0 | 5.0 | 0.00 | 0.00 | 0.00 | 51 | 1183.0 |
| 20260502054154 | 42 | 8 | 4.0 | 6.0 | 0.00 | 0.00 | 0.00 | 51 | 1183.1 |
| 20260502053652 | 44 | 2 | 6.0 | 7.0 | 0.00 | 0.00 | 0.00 | 47 | 1183.1 |
| 20260502053148 | 45 | 5 | 5.0 | 7.0 | 0.00 | 0.00 | 0.00 | 45 | 1183.0 |
| 20260502052647 | 47 | 17 | 3.0 | 7.0 | 0.00 | 0.00 | 0.00 | 43 | 1183.1 |
| 20260502052144 | 46 | 24 | 6.0 | 7.0 | 0.00 | 0.00 | 0.00 | 43 | 1182.8 |
| 20260502051642 | 45 | 33 | 5.0 | 6.0 | 0.00 | 0.00 | 0.00 | 47 | 1183.0 |
| 20260502051140 | 44 | 28 | 5.0 | 7.0 | 0.00 | 0.00 | 0.00 | 50 | 1182.9 |
| 20260502050636 | 45 | 23 | 5.0 | 6.0 | 0.00 | 0.00 | 0.00 | 49 | 1182.9 |
| 20260502050133 | 43 | 39 | 5.0 | 7.0 | 0.00 | 0.00 | 0.00 | 50 | 1183.1 |
| 20260502045629 | 45 | 27 | 4.0 | 6.0 | 0.00 | 0.00 | 0.00 | 50 | 1182.8 |
| 20260502045127 | 46 | 17 | 5.0 | 6.0 | 0.00 | 0.00 | 0.00 | 46 | 1182.9 |
| 20260502044623 | 47 | 20 | 5.0 | 6.0 | 0.00 | 0.00 | 0.00 | 43 | 1183.0 |
| 20260502044120 | 48 | 34 | 6.0 | 7.0 | 0.00 | 0.00 | 0.00 | 39 | 1182.9 |
| 20260502043619 | 46 | 23 | 5.0 | 6.0 | 0.00 | 0.00 | 0.00 | 42 | 1182.9 |
| 20260502043115 | 46 | 20 | 4.0 | 5.0 | 0.00 | 0.00 | 0.00 | 44 | 1182.8 |
| 20260502042614 | 44 | 28 | 4.0 | 5.0 | 0.00 | 0.00 | 0.00 | 48 | 1183.0 |
| 20260502042112 | 49 | 7 | 3.0 | 3.0 | 0.00 | 0.00 | 0.00 | 42 | 1183.0 |
| 20260502041609 | 46 | 15 | 2.0 | 3.0 | 0.00 | 0.00 | 0.00 | 39 | 1183.0 |
| 20260502041106 | 47 | 23 | 3.0 | 3.0 | 0.00 | 0.00 | 0.00 | 42 | 1182.9 |
| 20260502040603 | 47 | 11 | 4.0 | 5.0 | 0.00 | 0.00 | 0.00 | 44 | 1183.0 |
| 20260502040100 | 56 | 315 | 5.0 | 6.0 | 0.00 | 0.00 | 0.00 | 33 | 1182.7 |
| 20260502035556 | 54 | 11 | 2.0 | 3.0 | 0.00 | 0.00 | 0.00 | 31 | 1182.7 |
| 20260502035053 | 56 | 148 | 4.0 | 5.0 | 0.00 | 0.00 | 0.00 | 31 | 1182.5 |
| 20260502034551 | 58 | 182 | 2.0 | 2.0 | 0.00 | 0.00 | 0.00 | 27 | 1182.3 |
| 20260502034049 | 59 | 182 | 2.0 | 2.0 | 0.00 | 0.00 | 0.00 | 27 | 1182.5 |
| 20260502033547 | 59 | 183 | 0.0 | 1.0 | 0.00 | 0.00 | 0.00 | 26 | 1182.5 |
| 20260502033044 | 58 | 183 | 0.0 | 0.0 | 0.00 | 0.00 | 0.00 | 27 | 1182.6 |
| 20260502032540 | 57 | 183 | 0.0 | 0.0 | 0.00 | 0.00 | 0.00 | 27 | 1182.2 |
| 20260502032037 | 58 | 183 | 0.0 | 0.0 | 0.00 | 0.00 | 0.00 | 27 | 1182.2 |
| 20260502031535 | 58 | 183 | 0.0 | 0.0 | 0.00 | 0.00 | 0.00 | 26 | 1182.1 |
| 20260502031033 | 59 | 183 | 0.0 | 0.0 | 0.00 | 0.00 | 0.00 | 26 | 1182.1 |
| 20260502030531 | 60 | 183 | 0.0 | 0.0 | 0.00 | 0.00 | 0.00 | 24 | 1182.0 |
| 20260502030029 | 62 | 183 | 0.0 | 0.0 | 0.00 | 0.00 | 0.00 | 24 | 1182.0 |
| 20260502025526 | 62 | 183 | 1.0 | 2.0 | 0.00 | 0.00 | 0.00 | 23 | 1181.8 |
| 20260502025024 | 62 | 183 | 1.0 | 2.0 | 0.00 | 0.00 | 0.00 | 23 | 1181.8 |
| 20260502024521 | 62 | 183 | 2.0 | 2.0 | 0.00 | 0.00 | 0.00 | 23 | 1181.7 |
| 20260502024020 | 62 | 183 | 1.0 | 2.0 | 0.00 | 0.00 | 0.00 | 23 | 1181.7 |
| 20260502023517 | 63 | 183 | 1.0 | 2.0 | 0.00 | 0.00 | 0.00 | 23 | 1181.8 |
| 20260502023014 | 63 | 183 | 2.0 | 2.0 | 0.00 | 0.00 | 0.00 | 23 | 1182.0 |
| 20260502022510 | 63 | 183 | 2.0 | 3.0 | 0.00 | 0.00 | 0.00 | 23 | 1181.7 |
| 20260502022008 | 64 | 183 | 3.0 | 3.0 | 0.00 | 0.00 | 0.00 | 23 | 1181.6 |
| 20260502021505 | 64 | 183 | 4.0 | 5.0 | 0.00 | 0.00 | 0.00 | 23 | 1181.9 |
| 20260502021001 | 65 | 180 | 3.0 | 5.0 | 0.00 | 0.00 | 0.00 | 23 | 1181.9 |
| 20260502020500 | 64 | 176 | 3.0 | 3.0 | 0.00 | 0.00 | 0.00 | 24 | 1181.8 |
| 20260502015956 | 65 | 171 | 2.0 | 3.0 | 0.00 | 0.00 | 0.00 | 24 | 1181.8 |
| 20260502015454 | 66 | 219 | 1.0 | 1.0 | 0.00 | 0.00 | 0.00 | 26 | 1181.6 |
| 20260502014950 | 66 | 220 | 3.0 | 5.0 | 0.00 | 0.00 | 0.00 | 21 | 1181.8 |
| 20260502014447 | 66 | 207 | 3.0 | 5.0 | 0.00 | 0.00 | 0.00 | 24 | 1181.7 |
| 20260502013944 | 67 | 203 | 2.0 | 2.0 | 0.00 | 0.00 | 0.00 | 25 | 1181.8 |
| 20260502013439 | 69 | 129 | 3.0 | 3.0 | 0.00 | 0.00 | 0.00 | 20 | 1181.7 |
| 20260502012936 | 68 | 129 | 0.0 | 1.0 | 0.00 | 0.00 | 0.00 | 19 | 1181.7 |
| 20260502012434 | 68 | 129 | 0.0 | 2.0 | 0.00 | 0.00 | 0.00 | 19 | 1181.9 |
| 20260502011931 | 68 | 129 | 1.0 | 3.0 | 0.00 | 0.00 | 0.00 | 19 | 1181.8 |
| 20260502011427 | 68 | 168 | 2.0 | 3.0 | 0.00 | 0.00 | 0.00 | 20 | 1181.8 |
| 20260502010924 | 68 | 153 | 4.0 | 6.0 | 0.00 | 0.00 | 0.00 | 19 | 1181.9 |
| 20260502010420 | 68 | 198 | 3.0 | 6.0 | 0.00 | 0.00 | 0.00 | 19 | 1181.7 |
| 20260502005917 | 68 | 208 | 3.0 | 6.0 | 0.00 | 0.00 | 0.00 | 20 | 1181.9 |
| 20260502005415 | 68 | 166 | 5.0 | 7.0 | 0.00 | 0.00 | 0.00 | 19 | 1181.9 |
| 20260502004913 | 69 | 192 | 3.0 | 3.0 | 0.00 | 0.00 | 0.00 | 20 | 1181.9 |
| 20260502004409 | 68 | 79 | 1.0 | 2.0 | 0.00 | 0.00 | 0.00 | 19 | 1181.9 |
| 20260502003906 | 69 | 82 | 4.0 | 6.0 | 0.00 | 0.00 | 0.00 | 20 | 1181.9 |
| 20260502003403 | 69 | 225 | 3.0 | 3.0 | 0.00 | 0.00 | 0.00 | 19 | 1181.8 |
| 20260502002859 | 70 | 156 | 1.0 | 2.0 | 0.00 | 0.00 | 0.00 | 19 | 1182.1 |
| 20260502002357 | 68 | 191 | 0.0 | 3.0 | 0.00 | 0.00 | 0.00 | 19 | 1182.1 |
| 20260502001854 | 68 | 150 | 4.0 | 7.0 | 0.00 | 0.00 | 0.00 | 20 | 1182.2 |
| 20260502001351 | 69 | 319 | 2.0 | 3.0 | 0.00 | 0.00 | 0.00 | 20 | 1182.1 |
| 20260502000849 | 69 | 200 | 3.0 | 5.0 | 0.00 | 0.00 | 0.00 | 19 | 1182.1 |
| 20260502000347 | 68 | 198 | 3.0 | 5.0 | 0.00 | 0.00 | 0.00 | 21 | 1182.0 |
| 20260501235843 | 69 | 169 | 4.0 | 7.0 | 0.00 | 0.00 | 0.00 | 21 | 1182.2 |
| 20260501235339 | 69 | 343 | 1.0 | 2.0 | 0.00 | 0.00 | 0.00 | 20 | 1181.9 |
| 20260501234834 | 69 | 116 | 2.0 | 3.0 | 0.00 | 0.00 | 0.00 | 19 | 1182.3 |
| 20260501234331 | 68 | 20 | 3.0 | 5.0 | 0.00 | 0.00 | 0.00 | 19 | 1182.5 |
| 20260501233830 | 69 | 154 | 1.0 | 6.0 | 0.00 | 0.00 | 0.00 | 19 | 1182.3 |
| 20260501233327 | 69 | 122 | 5.0 | 5.0 | 0.00 | 0.00 | 0.00 | 19 | 1182.2 |
| 20260501232822 | 70 | 203 | 2.0 | 3.0 | 0.00 | 0.00 | 0.00 | 19 | 1182.5 |
| 20260501232320 | 69 | 198 | 4.0 | 5.0 | 0.00 | 0.00 | 0.00 | 19 | 1182.5 |
| 20260501231817 | 70 | 254 | 5.0 | 6.0 | 0.00 | 0.00 | 0.00 | 19 | 1182.6 |
| 20260501231315 | 70 | 334 | 3.0 | 5.0 | 0.00 | 0.00 | 0.00 | 19 | 1182.7 |
| 20260501230813 | 70 | 328 | 3.0 | 5.0 | 0.00 | 0.00 | 0.00 | 18 | 1182.7 |
| 20260501230312 | 70 | 269 | 0.0 | 3.0 | 0.00 | 0.00 | 0.00 | 18 | 1182.7 |
| 20260501225809 | 68 | 238 | 5.0 | 6.0 | 0.00 | 0.00 | 0.00 | 18 | 1182.8 |
| 20260501225307 | 69 | 239 | 4.0 | 5.0 | 0.00 | 0.00 | 0.00 | 18 | 1182.8 |
| 20260501224802 | 68 | 212 | 4.0 | 8.0 | 0.00 | 0.00 | 0.00 | 19 | 1182.8 |
| 20260501224300 | 68 | 158 | 6.0 | 10.0 | 0.00 | 0.00 | 0.00 | 20 | 1182.6 |
| 20260501223756 | 68 | 167 | 8.0 | 10.0 | 0.00 | 0.00 | 0.00 | 20 | 1182.9 |
| 20260501223253 | 68 | 171 | 6.0 | 8.0 | 0.00 | 0.00 | 0.00 | 20 | 1182.9 |
| 20260501222748 | 70 | 169 | 6.0 | 7.0 | 0.00 | 0.00 | 0.00 | 19 | 1183.1 |
| 20260501222246 | 70 | 130 | 5.0 | 8.0 | 0.00 | 0.00 | 0.00 | 21 | 1183.4 |
| 20260501221743 | 69 | 265 | 1.0 | 3.0 | 0.00 | 0.00 | 0.00 | 19 | 1183.2 |
| 20260501221240 | 69 | 271 | 3.0 | 8.0 | 0.00 | 0.00 | 0.00 | 19 | 1183.5 |
| 20260501220737 | 68 | 278 | 4.0 | 10.0 | 0.00 | 0.00 | 0.00 | 19 | 1183.7 |
| 20260501220235 | 68 | 50 | 5.0 | 6.0 | 0.00 | 0.00 | 0.00 | 20 | 1183.5 |
| 20260501215732 | 68 | 296 | 2.0 | 6.0 | 0.00 | 0.00 | 0.00 | 19 | 1183.6 |